This demonstration page uses our WeatherBlox Daily Observations layout. Learn more.

Left ArrowRight Arrow

Hourly Observations for February 14, 2017

Temp ( °F °C ) Dew Point ( °F °C ) Humidity (%) Winds ( mph kmh ) Pressure ( in mb ) Visibility ( mi km ) Precip ( " mm )
12:51 am 00:51 Clear 41 5 40 4.4 96 96 N N/A 30.00 1016 10 16 N/A
1:51 am 01:51 Mostly Clear 41 5 39 3.9 93 93 N N/A 30.01 1016 10 16 N/A
2:51 am 02:51 Clear 40 4.4 39 3.9 97 97 NE 6 9 30.00 1016 9 14 N/A
3:51 am 03:51 Clear 41 5 40 4.4 96 96 ENE 6 9 29.99 1016 10 16 N/A
4:51 am 04:51 Clear 40 4.4 39 3.9 97 97 E 7 11 30.01 1016 10 16 N/A
5:51 am 05:51 Mostly Clear 39 3.9 38 3.3 96 96 SSE 6 9 30.03 1017 10 16 N/A
6:01 am 06:01 Partly Cloudy with Mist and Fog 39 3.9 38 3.3 96 96 SSE 7 11 30.12 1020 2 3 N/A
6:04 am 06:04 Partly Cloudy with Mist and Fog 39 3.9 38 3.3 96 96 SSE 7 11 30.12 1020 1 1 N/A
6:20 am 06:20 Partly Cloudy with Mist and Fog 39 3.9 38 3.3 96 96 S 6 9 30.12 1020 2 3 N/A
6:28 am 06:28 Mostly Clear with Light Rain 39 3.9 38 3.3 96 96 SSE 8 13 30.12 1020 10 16 N/A
6:51 am 06:51 Partly Cloudy 38 3.3 38 3.3 100 100 N N/A 30.05 1018 10 16 N/A
7:51 am 07:51 Mostly Cloudy 40 4.4 39 3.9 97 97 SSE 9 15 30.07 1018 10 16 N/A
8:51 am 08:51 Sunny 45 7.2 42 5.6 90 90 SE 10 17 30.09 1019 10 16 N/A
9:51 am 09:51 Mostly Sunny 51 10.6 44 6.7 77 77 SSE 8 13 30.08 1019 10 16 N/A
10:51 am 10:51 Mostly Cloudy 54 12.2 44 6.7 69 69 E 8 13 30.09 1019 10 16 N/A
11:51 am 11:51 Sunny 56 13.3 43 6.1 62 62 E 10 17 30.06 1018 10 16 N/A
12:51 pm 12:51 Cloudy 56 13.3 43 6.1 62 62 ESE 7 11 30.05 1018 10 16 N/A
1:51 pm 13:51 Mostly Sunny 58 14.4 42 5.6 56 56 SSE 9 15 30.02 1017 10 16 N/A
2:51 pm 14:51 Mostly Cloudy 58 14.4 42 5.6 56 56 E 7 11 30.02 1017 10 16 N/A
3:51 pm 15:51 Sunny 59 15 42 5.6 54 54 E 9 15 30.01 1016 10 16 N/A
4:51 pm 16:51 Mostly Sunny 58 14.4 42 5.6 56 56 E 12 19 30.02 1017 10 16 N/A
5:51 pm 17:51 Mostly Sunny 56 13.3 39 3.9 53 53 E 9 15 30.03 1017 10 16 N/A
6:51 pm 18:51 Cloudy 55 12.8 39 3.9 55 55 E 12 19 30.06 1018 10 16 N/A
7:51 pm 19:51 Cloudy 54 12.2 38 3.3 55 55 ESE 8 13 30.08 1019 10 16 N/A
8:51 pm 20:51 Cloudy 54 12.2 38 3.3 55 55 E 8 13 30.09 1019 10 16 N/A
9:51 pm 21:51 Cloudy 54 12.2 36 2.2 51 51 ESE 8 13 30.09 1019 10 16 N/A
10:51 pm 22:51 Partly Cloudy 51 10.6 37 2.8 59 59 SSE 8 13 30.11 1020 10 16 N/A
11:51 pm 23:51 Clear 48 8.9 37 2.8 66 66 E 7 11 30.12 1020 10 16 N/A

Powered by AerisWeather